Theta_e
309 309 309 310 309 308 308 308 308 309 310 311 312 314 315 312 314 315 314 314 316 316 315 315 315 314 313 314 311 309 317 318 317 318 318 318 318 318 316 317 317 317 317 317 317
309 309 309 308 308 308 308 309 309 310 311 312 314 316 316 315 314 314 314 317 317 316 316 316 317 315 317 317 316 316 319 317 315 316 318 318 317 317 317 317 317 318 317 315 316
309 309 309 310 310 309 309 309 310 311 312 314 316 318 317 316 316 316 316 317 317 317 316 314 313 316 316 316 316 316 318 315 316 316 316 317 317 315 316 317 315 316 316 316 316
309 309 310 310 310 310 310 310 311 312 314 315 315 320 316 315 315 317 317 317 317 317 316 316 316 316 317 317 315 318 316 316 317 316 316 318 316 316 316 316 314 314 315 316 317
310 310 310 310 310 310 311 311 312 313 314 315 314 319 318 317 317 317 317 316 315 316 316 317 317 317 318 317 316 318 317 316 316 315 315 315 315 315 316 315 313 314 316 316 317
310 310 311 311 310 311 311 312 312 313 314 314 314 319 315 316 316 317 317 316 316 315 315 316 317 316 317 316 318 316 316 317 316 316 315 315 315 315 316 314 316 316 317 316 316
309 311 312 312 312 312 311 312 312 313 314 313 313 316 318 316 316 316 316 316 316 315 315 314 315 317 316 317 315 316 318 317 317 316 315 313 316 316 314 314 316 316 316 316 316
306 311 312 313 314 314 314 312 312 313 313 312 313 315 320 320 320 318 316 315 315 314 313 314 314 316 317 315 315 316 316 317 318 315 314 315 317 317 314 315 316 317 316 315 318
305 308 312 313 314 315 317 317 315 312 313 313 315 316 320 318 318 317 317 315 315 314 313 313 314 314 315 317 317 317 318 318 318 316 315 315 317 317 315 315 317 318 315 319 320
306 306 311 313 314 316 317 317 318 318 315 316 316 318 318 319 318 316 315 315 316 315 316 316 315 316 316 318 318 319 319 318 318 317 315 316 316 316 315 315 316 317 315 320 320
306 306 309 313 314 317 318 317 317 317 317 317 316 317 316 317 318 316 314 315 315 316 317 314 318 319 319 317 317 317 317 318 317 316 315 315 315 315 314 313 314 316 318 320 320
309 306 307 313 315 317 318 318 317 316 320 315 314 315 315 317 317 318 314 316 316 317 314 317 318 318 315 315 316 317 318 319 316 315 315 315 315 314 314 314 314 315 320 320 320
311 308 306 313 316 318 317 317 316 315 319 317 316 317 317 317 318 318 315 314 316 316 316 317 318 315 316 317 318 318 318 317 316 316 315 314 313 313 314 314 316 319 320 320 320
313 309 306 313 318 318 317 317 316 316 325 324 320 314 315 315 318 317 315 315 315 316 315 316 315 316 318 317 317 319 315 315 316 317 315 313 312 314 314 317 317 319 320 320 320
311 309 307 314 318 318 317 316 317 319 328 321 316 314 315 317 317 319 316 317 317 317 316 318 317 318 318 317 316 318 315 316 316 316 314 314 315 315 314 316 317 319 320 321 319
310 308 309 314 319 315 317 317 320 329 326 318 315 315 318 317 318 318 318 317 316 317 317 317 316 316 316 315 314 314 316 317 312 314 317 316 319 317 315 315 317 320 321 320 319
312 309 316 315 318 314 316 319 328 327 317 317 316 316 317 318 318 318 318 319 320 320 319 318 318 316 316 318 315 317 318 320 317 319 314 317 316 315 315 315 316 317 319 320 319
318 319 319 318 319 318 317 325 327 316 316 315 317 317 319 319 318 317 317 319 318 318 319 320 316 318 317 317 317 317 317 320 321 316 315 314 316 316 318 317 317 318 319 319 318
320 316 314 314 319 317 322 322 318 317 317 317 317 317 318 318 318 317 317 319 319 318 320 321 319 317 316 316 316 316 318 315 322 317 320 316 316 317 316 316 317 319 315 316 317
322 316 316 314 316 319 324 322 318 318 318 317 318 317 318 318 318 318 317 317 319 318 317 318 321 316 316 316 315 316 316 321 321 323 321 315 316 316 315 316 315 315 315 316 316
318 321 314 314 316 320 322 319 317 317 318 318 318 318 318 319 319 317 318 317 317 317 317 317 320 316 316 315 315 315 317 317 318 321 323 319 316 315 315 315 316 316 315 316 315
314 322 312 313 318 313 318 315 315 317 314 316 317 318 319 318 317 317 318 317 317 315 316 316 319 319 316 315 314 315 317 318 324 319 320 321 321 315 316 316 316 316 316 315 314
314 314 309 312 316 316 314 315 315 315 314 315 316 314 314 316 318 315 316 317 316 315 316 316 321 321 315 313 314 316 316 316 318 318 321 323 320 316 316 317 316 316 315 314 314
311 313 309 310 309 314 314 315 315 313 313 313 313 312 313 314 314 315 314 313 314 315 316 317 319 319 317 315 315 317 316 315 318 321 321 321 319 317 317 318 317 315 314 313 312
305 309 306 308 310 311 311 312 313 314 312 312 313 312 311 313 311 311 313 313 312 314 315 319 319 316 316 315 315 316 316 317 318 318 320 319 318 317 317 316 315 313 312 312 311
307 307 306 307 308 309 309 311 312 310 311 312 313 311 308 309 309 309 311 313 313 312 314 313 316 315 316 316 316 318 318 317 317 318 318 317 317 315 315 314 314 313 311 310 309
303 303 306 305 309 308 309 309 307 310 310 311 310 308 309 310 309 309 309 310 310 311 312 313 315 317 318 316 315 315 315 315 314 315 317 317 316 315 314 313 312 310 309 309 308
Wind_Speed
11 10 9 9 9 9 8 8 6 7 8 8 10 13 11 10 11 12 11 8 12 14 16 6 11 6 6 5 6 1 4 6 3 3 3 5 6 5 4 6 5 6 6 9 10
11 11 10 9 9 8 8 7 7 8 8 9 11 12 8 8 13 14 11 14 15 17 22 13 6 7 5 5 4 5 4 3 2 3 3 5 4 5 4 9 7 10 12 12 11
11 10 9 9 9 7 7 7 8 8 8 10 13 9 5 3 6 6 11 14 13 16 14 10 6 5 6 4 8 4 4 3 2 3 2 2 2 3 2 5 4 6 10 11 12
11 10 11 10 9 7 8 8 9 9 9 11 13 6 5 2 4 3 10 12 11 12 15 18 6 5 4 6 4 5 2 1 1 1 2 3 0 3 2 3 1 2 4 5 9
10 10 11 10 9 8 8 8 8 8 8 10 14 9 3 5 4 4 8 9 9 10 11 6 14 4 7 3 2 7 6 5 7 4 4 2 3 1 4 2 3 4 3 7 8
9 9 9 9 8 7 7 6 6 6 7 9 12 7 4 11 2 5 6 6 8 8 6 7 5 4 5 3 4 3 4 6 2 2 2 2 2 3 3 2 5 7 8 8 8
8 7 7 7 6 6 5 4 4 3 4 7 10 6 3 3 1 5 6 6 5 7 5 5 4 3 2 3 2 1 1 3 3 5 2 2 4 5 1 2 6 7 8 8 8
7 5 5 5 5 5 3 1 2 1 2 6 7 3 2 1 6 5 5 4 4 6 5 6 7 7 3 2 3 3 1 6 7 6 1 5 10 12 2 5 9 10 8 7 9
9 4 3 3 5 7 5 1 3 2 3 4 2 3 3 4 3 4 4 1 2 4 8 7 5 4 2 2 2 5 6 9 7 7 5 3 12 12 9 11 12 14 7 4 7
13 6 2 2 5 8 5 4 4 1 0 3 4 3 1 1 4 4 3 3 2 3 1 6 4 2 2 3 5 5 5 4 10 5 5 13 14 14 16 15 17 16 6 1 4
15 8 2 1 4 6 4 1 2 1 4 1 1 1 3 5 4 2 1 3 2 2 1 3 2 2 0 3 3 5 5 8 8 6 10 15 17 19 19 17 16 10 4 3 3
17 10 1 1 3 3 7 5 3 0 3 1 2 4 5 1 2 4 0 2 2 3 3 2 6 4 4 4 5 5 6 10 7 7 11 18 23 18 14 12 6 5 3 2 1
16 9 0 3 4 10 12 5 4 5 1 4 0 1 2 4 3 7 2 1 2 3 4 6 5 2 4 4 5 4 6 3 8 13 13 12 16 2 2 6 4 3 2 2 2
15 5 2 5 6 4 3 9 6 6 1 2 1 3 2 1 3 6 4 1 1 4 3 5 3 2 3 3 2 7 3 6 11 13 12 4 9 3 4 7 7 3 4 3 2
14 3 5 6 9 3 4 9 2 2 3 2 3 2 3 3 4 8 6 3 4 3 2 2 4 4 4 1 3 4 5 9 12 13 5 5 6 0 3 8 7 6 5 4 2
14 7 8 7 6 4 8 2 2 1 2 2 3 4 3 7 4 8 7 5 1 2 2 2 3 1 2 2 1 3 6 11 1 2 5 4 2 5 4 4 5 4 5 5 5
15 13 12 8 2 8 7 2 1 1 2 3 3 3 3 4 2 6 5 6 4 5 5 8 2 0 0 3 3 3 8 5 3 2 5 6 7 11 12 12 14 12 10 7 7
14 14 14 14 7 6 2 2 2 1 2 1 2 1 1 7 3 7 4 3 3 3 2 3 4 3 0 11 9 3 2 2 6 5 13 12 9 4 4 4 4 5 5 8 10
4 8 13 15 6 7 3 4 2 1 3 3 1 1 1 1 4 5 2 2 1 2 2 4 5 5 14 5 3 4 5 2 4 4 5 5 6 10 15 12 7 10 8 8 9
1 2 9 16 6 3 4 3 2 2 3 0 1 0 2 1 2 6 3 2 2 2 1 2 9 7 3 2 3 6 7 3 2 4 7 10 13 12 9 9 10 13 14 5 11
3 2 16 10 4 5 3 2 1 2 5 1 2 2 2 1 2 3 3 1 1 3 2 3 3 3 3 7 12 5 4 4 4 5 5 11 9 4 10 13 14 14 9 13 10
3 2 18 6 4 2 2 3 5 4 7 4 1 1 1 0 3 3 4 3 2 3 6 0 3 9 18 21 10 10 14 14 6 8 7 12 18 13 14 10 10 14 17 11 10
2 2 12 7 3 3 3 2 4 7 5 5 4 5 4 1 3 4 4 4 3 2 4 2 2 6 7 3 3 3 4 12 11 6 17 15 13 4 9 16 17 12 11 13 16
2 2 4 5 2 2 4 3 4 6 2 4 2 4 3 2 2 5 9 5 2 7 12 5 7 11 11 18 18 22 21 20 15 7 17 20 27 24 22 21 17 11 13 16 19
5 2 1 3 4 3 1 3 3 5 3 4 2 6 5 4 9 8 4 8 12 9 0 2 8 12 17 21 22 22 24 24 19 23 16 26 25 24 21 11 13 13 16 20 20
3 2 1 1 2 1 2 2 3 4 2 1 2 7 7 7 10 17 11 5 7 3 2 3 9 14 20 16 14 15 19 21 20 20 16 18 22 8 10 11 18 18 22 24 23
3 2 1 1 1 1 1 2 2 4 2 4 3 11 11 8 6 14 15 17 15 16 16 7 4 4 12 9 17 14 6 8 13 11 8 7 17 13 15 19 18 22 24 23 22
Wind_Direction
55 57 50 42 31 24 20 24 44 73 74 54 31 26 47 88 80 59 44 13 10 23 36 77 66 72 53 62 40 152 80 101 102 102 57 0 4 351 343 1 33 14 26 339 343
56 51 40 31 21 16 21 45 70 80 69 44 28 25 55 94 75 58 31 26 27 37 37 33 45 46 62 29 27 40 86 81 41 103 16 321 318 342 349 23 26 43 32 6 1
50 43 32 21 14 26 49 73 84 80 62 41 24 29 26 39 61 20 24 19 28 37 47 50 90 62 61 33 8 35 60 136 168 228 307 259 265 335 354 53 35 22 13 27 29
43 36 29 25 35 55 72 85 90 83 60 38 26 42 41 47 78 352 5 19 29 35 46 38 50 63 66 54 12 102 40 259 317 199 295 246 271 119 101 117 214 289 331 3 20
34 32 33 40 54 67 82 92 93 81 57 34 21 34 36 69 90 360 8 22 25 35 35 49 56 82 71 75 105 45 1 331 313 298 235 250 353 116 221 205 253 285 337 6 355
25 29 33 44 59 72 83 93 94 77 52 30 24 40 67 87 338 358 353 9 17 30 36 38 67 93 93 73 57 344 329 331 340 2 295 229 332 196 232 262 322 339 338 343 344
17 22 29 37 49 59 72 97 108 85 46 24 18 31 76 92 326 317 324 338 354 21 28 39 108 62 133 114 8 15 20 19 15 8 19 298 218 270 94 298 300 304 315 325 328
13 14 22 29 30 24 14 139 168 148 4 0 6 55 125 275 317 320 332 5 43 54 66 45 102 92 43 119 45 37 72 348 356 341 65 332 301 307 2 314 303 303 300 319 333
14 3 11 9 14 6 349 263 227 222 313 338 21 43 111 331 351 325 283 348 354 60 61 70 67 62 61 51 77 35 331 331 324 354 340 353 304 305 295 301 293 295 306 341 5
14 355 335 354 4 8 37 72 92 153 218 53 66 140 20 14 317 313 292 262 27 1 50 40 53 97 104 25 6 319 306 295 304 336 335 306 293 300 295 284 282 280 288 345 8
10 3 305 335 4 9 9 141 5 37 37 317 295 286 275 310 308 340 304 126 109 75 257 36 316 360 290 204 211 226 238 271 295 303 320 301 297 296 296 287 281 289 231 13 333
1 3 309 184 29 42 62 77 116 143 315 38 241 264 268 282 356 345 305 207 194 270 149 236 286 213 185 210 232 231 275 301 288 297 313 305 297 301 288 272 294 281 211 315 336
352 354 160 151 109 91 82 73 345 163 337 319 281 344 38 145 42 356 359 120 238 246 221 250 287 145 239 237 246 250 269 259 297 317 287 288 289 258 271 266 233 200 212 205 338
350 352 152 153 137 124 68 356 348 167 68 17 66 52 42 158 109 20 15 295 190 281 199 258 345 287 293 254 212 282 198 286 288 312 307 356 298 261 265 264 276 211 206 217 217
4 51 143 145 124 89 351 341 121 164 146 63 64 18 14 72 319 29 358 10 292 310 233 301 341 330 296 103 200 306 311 294 293 287 278 202 253 130 285 268 283 235 248 232 234
30 81 120 112 91 59 350 13 116 180 130 70 42 17 39 11 34 336 7 32 54 52 46 294 299 267 101 72 101 328 301 291 171 238 246 141 246 265 249 261 265 236 236 256 240
50 77 80 68 49 348 346 110 130 73 312 39 17 1 105 9 6 8 2 30 30 355 3 322 20 21 101 340 298 317 329 316 282 245 292 163 287 271 281 269 268 277 278 268 253
68 79 55 35 17 357 28 102 101 108 44 77 25 104 71 3 33 348 11 35 77 77 306 332 304 343 172 329 295 290 259 264 291 292 297 273 250 241 243 272 280 259 258 269 256
91 52 33 1 8 357 88 65 92 48 330 353 345 72 107 31 353 348 7 266 186 122 8 299 249 293 296 303 219 155 220 349 271 267 268 240 256 271 272 259 248 242 301 280 280
81 50 19 350 347 47 75 109 97 39 331 86 262 312 294 323 318 351 315 190 190 183 29 307 297 272 284 254 200 246 151 212 214 270 261 268 268 270 282 261 290 299 310 310 323
60 64 355 357 16 50 79 73 25 6 19 318 215 238 213 258 238 303 270 272 201 147 212 287 221 274 278 244 277 230 219 210 275 232 264 290 273 224 287 295 296 308 320 325 324
41 58 353 13 44 26 58 345 341 353 16 20 82 84 309 232 266 265 253 258 157 331 315 23 243 274 273 276 292 259 262 251 236 238 233 275 276 290 281 286 323 308 310 324 318
56 332 0 30 65 31 349 13 35 11 24 15 45 42 16 300 303 246 252 283 202 244 332 186 254 303 286 189 140 227 223 239 251 274 259 266 269 251 271 296 319 327 321 319 318
48 32 10 47 51 73 13 9 352 14 93 2 45 80 35 316 247 278 272 291 356 304 299 240 236 232 264 288 295 288 279 266 253 258 268 261 276 288 295 301 320 316 317 315 313
20 61 35 1 38 51 1 359 355 355 5 358 111 74 36 301 295 266 271 291 292 301 190 256 264 272 277 282 284 280 280 282 266 262 259 278 287 292 308 322 321 316 312 311 305
53 0 51 63 298 328 5 51 15 333 282 345 295 341 321 266 262 292 295 270 274 332 42 337 284 300 296 285 286 287 279 276 281 280 269 274 284 321 317 310 317 322 318 309 307
41 96 267 71 350 284 72 100 334 328 239 269 355 328 298 294 298 281 273 267 267 277 282 274 288 295 290 312 306 285 329 322 306 300 310 285 302 320 318 319 320 318 309 306 306